Flag for U.S.A. Weather past 2 weeks in Austin, Texas, U.S.A.

Now
72 °F

Clear.


Feels Like: 77 °F
Forecast: 60 / 83 °F
Wind: 3 mph from East

Location: Camp Mabry / Austin City

Current Time: Sep 24, 2014 at 12:32:30 AM

Latest Report: Sep 23, 2014 at 11:51 PM


Visibility: 10 mi

Pressure: 30.07 "Hg

Humidity: 55%

Dew point: 55 °F

Location of AustinLocation

Historic Weather in Austin — Graph

°F

Austin temperature yesterday

Maximum temperature yesterday: 84 °F (at 3:51 PM)
Minimum temperature yesterday: 67 °F (at 6:51 AM)
Average temperature yesterday: 75 °F

Past Weeks' High & Low Weather Summary

 TemperatureHumidityPressure
High98 °F (Sep 10, 2:51 PM)100% (Sep 12, 6:51 PM)30.23 "Hg (Sep 12, 6:51 PM)
Low60 °F (Sep 13, 7:51 AM)35% (Sep 11, 5:51 PM)29.74 "Hg (Sep 10, 5:51 PM)
Average79 °F75%29.98 "Hg
* Reported Sep 8 10:51 PM — Sep 23 10:51 PM, Austin, Weather by CustomWeather, © 2014

Note: Actual official high and low records may vary slightly from our data, if they occured in-between our weather recording intervals... More about our weather records

Advertising

Austin weather history for previous 24 hours

 ConditionsComfort  
Time TempWeatherWind HumidityBarometerVisibility
10:51 PM
Sep 23
73 °FClear.3 mph55%30.07 "Hg10 mi
9:51 PM73 °FClear.No wind62%30.07 "Hg10 mi
8:51 PM74 °FClear.3 mph57%30.06 "Hg10 mi
7:51 PM76 °FSunny.5 mph54%30.04 "Hg10 mi
6:51 PM79 °FSunny.3 mph45%30.03 "Hg10 mi
5:51 PM81 °FSunny.3 mph42%30.04 "Hg10 mi
4:51 PM82 °FSunny.5 mph43%30.04 "Hg10 mi
3:51 PM84 °FSunny.6 mph40%30.05 "Hg10 mi
2:51 PM83 °FSunny.3 mph43%30.07 "Hg10 mi
1:51 PM83 °FSunny.6 mph43%30.10 "Hg10 mi
12:51 PM81 °FSunny.N/A42%30.12 "Hg10 mi
11:51 AM78 °FSunny.No wind50%30.14 "Hg10 mi
10:51 AM76 °FSunny.3 mph50%30.15 "Hg10 mi
9:51 AM72 °FSunny.6 mph57%30.15 "Hg10 mi
8:51 AM70 °FSunny.3 mph66%30.14 "Hg10 mi
7:51 AM67 °FClear.3 mph73%30.11 "Hg10 mi
6:51 AM67 °FClear.No wind73%30.10 "Hg10 mi
5:51 AM69 °FClear.3 mph68%30.09 "Hg10 mi
4:51 AM70 °FClear.5 mph66%30.09 "Hg10 mi
3:51 AM72 °FClear.5 mph64%30.08 "Hg10 mi
2:51 AM73 °FClear.3 mph66%30.08 "Hg10 mi
1:51 AM74 °FClear.3 mph71%30.09 "Hg10 mi
12:51 AM76 °FClear.No wind72%30.08 "Hg10 mi
Weather by CustomWeather, © 2014

See weather overviewHow to use our weather pages